CZ-6A DEB, 61476

Orbit data source: Space-Track

CZ-6A DEB, 61476 is space debris in LEO originally from a launch on Tue, 06 Aug 2024 UTC launched from the Taiyaun Space Center, China (TSC). Debris objects in space refer to the collection of defunct objects orbiting the Earth. Examples of debris include non-operational satellites, rocket bodies, and fragments generated from explosions, collisions, or faulty payload assembly.

Loading next visibility...
Identifier
61476, 2024-140AAJ
Orbit
LEO
Country
Flag of CNCN / PRC
Related business
Manufacturer
SAST
Mission
Spacecraft
Bus & Motor
Unknown
Mass
Unknown
Launch date (UTC)
2024-08-06 (2 years ago)
Launch vehicle
Unknown
Launch site
Taiyaun Space Center, China (TSC)
Object type
Payload
Rocket body
Debris
Shape & HBR
Unknown shape, 0.2 m
Radar Cross Section
Medium (>0.1 m² and <1 m²)

Expand to show TLE details & history
Last TLE update: 14 hours ago

TLE from 14 hours ago
0 CZ-6A DEB
1 61476U 24140AAJ 26171.27005152  .00000243  00000-0  13412-3 0  9997
2 61476  88.9830 274.7169 0103445 219.8044 139.5519 14.05791194 91894
Epoch: 2026-06-20T06:28Z
TLE epoch observation values (Epoch: 2026-06-20T06:28:52.451Z)
Latitude
0.00004°
Longitude
-90.98873°
Altitude
934.266 km
Speed
7.355 km/s
True Right ascension
18h 18m 52s
True Declination
0° 00' 00"
Sunlit
Object was in full shadow at epoch
Visualization orbit readout
Latitude
Unknown
Longitude
Unknown
Altitude
Unknown
Speed
Unknown
Apparent Right ascension
Unknown
Apparent Declination
Unknown
Sunlit
N/A
Visualization observer readout
Local Sidereal Time
07:19:28
Azimuth
Unknown
Elevation
Unknown
Doppler factor
Unknown
Orbital elements
Apogee altitude
945.768 km
Perigee altitude
795.795 km
Semi-major axis
7,248.918 km
Eccentricity
0.01034
Inclination
88.983°
RAAN
274.7169°
Arg. of periapsis
219.8044°
True anomaly
140.31342°
Mean anomaly
139.5519°
Eccentric anomaly
139.93341°
Mean motion
3.51668 °/min
Orbital period
102.37 mins
BSTAR
0.00013412
Loading maneuver chart data...
Computing Atmospheric mass density...
Loading historical data...
Loading historical data...
Loading historical data...
Loading historical data...
Loading historical data...
Loading historical data...
Loading historical data...

Documentation

Showing up to 5 results
|